Regional Weather Roundup
Issued by NWS

Home | Current Version | Previous Version | Text Only | Print | Product List | Glossary Off
Versions: 1 2 3 4 5 6 7 8 9 10 11 12 13 14 15 16 17 18 19 20 21 22 23 24 25 26 27 28 29 30 31 32 33 34 35 36 37 38 39 40 41 42 43 44 45 46 47 48 49 50

000
ASUS45 KBOU 230710
RWRCO

WEATHER ROUNDUP FOR COLORADO
NATIONAL WEATHER SERVICE DENVER/BOULDER CO
100 AM MDT SAT JUN 23 2018

NOTE: "FAIR" INDICATES FEW OR NO CLOUDS BELOW 12000 FEET WITH NO
SIGNIFICANT WEATHER AND/OR OBSTRUCTIONS TO VISIBILITY.

COZ001>005-013-030-031-230800-
...NORTHWEST COLORADO...

CITY           SKY/WX    TMP DP  RH WIND       PRES   REMARKS
CRAIG          FAIR      51  36  56 CALM      30.10R
HAYDEN         FAIR      54  30  40 SW6       30.12F
MEEKER         FAIR      55  30  38 E6        30.12R
RANGELY        FAIR      67  31  25 CALM      30.03S
RABBIT EARS PA FAIR      43  28  56 W8        30.35S
STEAMBOAT SPGS FAIR      49  35  58 CALM      30.13S
WALDEN         FAIR      39  32  75 SE9       30.21S
$$

COZ006>008-011-230800-
...WEST CENTRAL VALLEYS...

CITY           SKY/WX    TMP DP  RH WIND       PRES   REMARKS
GRAND JUNCTION FAIR      74  28  18 N9        29.96S
MONTROSE       FAIR      60  15  17 SE10      30.04R
EAGLE          FAIR      56  31  38 E9        30.13F
RIFLE          FAIR      61  29  29 E7        30.03S
DELTA          FAIR      67  17  14 SW3       29.98S
NUCLA          FAIR      63   9  12 E10       30.07S
$$

COZ017>023-064>068-230800-
...SOUTHWEST COLORADO...

CITY           SKY/WX    TMP DP  RH WIND       PRES   REMARKS
DURANGO        FAIR      62  21  20 N8        30.05F
CORTEZ         FAIR      55  30  38 E3        30.03R
PAGOSA SPRINGS FAIR      53  15  22 CALM      30.14S
TELLURIDE      FAIR      54   9  16 SE9       30.29F
WOLF CREEK PAS FAIR      46   3  17 NW5       30.49S
$$

COZ009-010-012-014-032>034-037-058>063-230800-
...CENTRAL COLORADO...

CITY           SKY/WX    TMP DP  RH WIND       PRES   REMARKS
ASPEN          FAIR      46  28  49 SW6       30.17S
BUENA VISTA    FAIR      52  17  24 W3        30.19S
COPPER MTN     FAIR      45  25  45 W12       30.44F
BERTHOUD PASS  FAIR      36  21  55 NW23G29   30.44F
COTTONWOOD PAS FAIR      59  21  23 SE8       30.30F
GUNNISON       FAIR      51  23  33 CALM      30.16S
GRANBY         FAIR      46  30  54 CALM      30.21F
KREMMLING      FAIR      54  32  43 CALM      30.18S
LEADVILLE      FAIR      43  26  51 NE8       30.30F
MONARCH PASS   FAIR      45   9  23 MISG      30.54F
SALIDA         FAIR      60  23  24 SW6       30.23S
SUNLIGHT       FAIR      46  21  36 CALM      30.40F
WILKERSON PASS FAIR      46  21  36 NE3       30.43S
$$

COZ069>075-230800-
...SAN LUIS VALLEY/SANGRE DE CRISTO MOUNTAINS...

CITY           SKY/WX    TMP DP  RH WIND       PRES   REMARKS
ALAMOSA        FAIR      58  18  21 N7        30.10F
DEL NORTE      FAIR      54  16  22 SW12      30.16S
LA VETA PASS   FAIR      52  48  87 MISG      30.42S
SAGUACHE       FAIR      54  12  19 N12       30.14F
$$

COZ035-036-038>040-230800-
...NORTHERN COLORADO FRONT RANGE...

CITY           SKY/WX    TMP DP  RH WIND       PRES   REMARKS
DENVER INTL AP FAIR      59  49  69 W9        30.04R
AURORA         PTCLDY    56  50  82 NW7       30.06R
FRONT RANGE AP FAIR      59  52  77 W7        30.05S
ERIE MUNI ARPT FAIR      58  50  76 CALM      30.09S
BOULDER MUN AP FAIR      59  50  72 W3        30.05F
CENTENNIAL     FAIR      59  50  72 NW8       30.06R
BROOMFIELD     FAIR      61  48  63 NW9       30.07S
FORT COLLINS   FAIR      59  52  77 W7        30.04S
LONGMONT       FAIR      58  50  77 W3        30.06S
$$

COZ041-046-047-076>085-087-088-230800-
...PIKES PEAK/PALMER DIVIDE AND SOUTHERN FOOTHILLS...

CITY           SKY/WX    TMP DP  RH WIND       PRES   REMARKS
COLO. SPRINGS  FAIR      59  48  67 E6        30.09S
A. F. ACADEMY  FAIR      53  47  79 N6        30.10S
SCHRIEVER AFB  NOT AVBL
CHEYENNE MTN   FAIR      63  41  45 CALM      30.06F
ELLICOTT         N/A    N/A N/A N/A E5        30.07F
FALCON         FAIR      54  44  68 CALM      30.13S
FORT CARSON    FAIR      61  50  68 SW5       30.04F
LIMON          FAIR      50  49  96 CALM      30.03F
MONUMENT HILL  FAIR      52  43  71 W9        30.13F
CANON CITY     CLEAR     64  52  63 CALM      30.03F
WALSENBURG     FAIR      59  52  77 CALM      30.06S
TRINIDAD       MOCLDY    60  57  89 NW6       30.02F
$$

COZ042>045-048>051-090-091-230800-
...NORTHEAST COLORADO...

CITY           SKY/WX    TMP DP  RH WIND       PRES   REMARKS
GREELEY ARPT   FAIR      56  52  86 NW7       30.01S
AKRON          FAIR      54  51  90 SE7       29.98F
BURLINGTON     FAIR      51  50  96 CALM      29.98F
WRAY           FAIR      54  54 100 SW6       29.93F
YUMA           FAIR      52  41  66 SW7       29.95F
STERLING       FAIR      55  52  88 SW7       29.94S
HOLYOKE        FAIR      59  55  88 W6        29.94S
FORT MORGAN    FAIR      56  48  75 E3        29.99F
$$

COZ086-089-092>099-230800-
...SOUTHEAST COLORADO...

CITY           SKY/WX    TMP DP  RH WIND       PRES   REMARKS
PUEBLO         FAIR      66  47  50 E7        29.99F
LA JUNTA       FAIR      63  53  70 N9        29.95F
LAMAR          FAIR      60  56  86 N5        29.92R
SPRINGFIELD      N/A     60  57  89 SW6G20    29.93F
$$



USA.gov is the U.S. government's official web portal to all federal, state and local government web resources and services.